Glenwood, MN

7:05 AM CST on February 11, 2016 (GMT -0600)
Glenwood Municipal

Weather History for KGHW - January, 2014

Change the Weather History Date:

Wednesday, January 22, 2014

  Actual Average Record
Temperature  
Mean Temperature -5 °F -  
Max Temperature 6 °F 24 °F 45 °F (1981)
Min Temperature -16 °F 3 °F -26 °F (1963)
Degree Days  
Heating Degree Days 70    
Moisture  
Dew Point -11 °F    
Average Humidity 77    
Maximum Humidity 85    
Minimum Humidity 65    
Precipitation  
Precipitation 0.00 in - - ()
Sea Level Pressure  
Sea Level Pressure 30.20 in    
Wind  
Wind Speed 18 mph (NW)    
Max Wind Speed 26 mph    
Max Gust Speed 34 mph    
Visibility 6 miles    
Events Snow    
Averages and records for this station are not official NWS values.
T = Trace of Precipitation, MM = Missing Value Source: NWS Daily Summary

Daily Weather History Graph

Daily Weather History Graph

Search for Another Location

Airport or City:

Trip Planner

Search our weather history database for the weather conditions in past years. The results will help you decide how hot, cold, wet, or windy it might be!

Date:

Astronomy

Jan. 22, 2014 Rise Set
Actual Time 7:52 AM CST 5:13 PM CST
Civil Twilight 7:20 AM CST 5:45 PM CST
Nautical Twilight 6:44 AM CST 6:22 PM CST
Astronomical Twilight 6:08 AM CST 6:57 PM CST
Moon No Moon Rise 10:33 AM CST (1/22)
Length of Visible Light 10h 25m
Length of Day
9h 20m
Waning Gibbous, 65% of the Moon is Illuminated
Jan 22
Waning Gibbous
Jan 23
Last Quarter
Jan 30
New
Feb 6
First Quarter
Feb 14
Full

Hourly Weather History & Observations

Time (CST) Temp. Windchill Dew Point Humidity Pressure Visibility Wind Dir Wind Speed Gust Speed Precip Events Conditions
12:13 AM 5.0 °F -13.6 °F 1.4 °F 85% 29.95 in 10.0 mi NW 16.1 mph - N/A   Mostly Cloudy
12:34 AM 3.2 °F -15.3 °F -0.4 °F 85% 29.95 in 10.0 mi NW 15.0 mph - N/A   Scattered Clouds
12:53 AM 3.2 °F -15.3 °F -0.4 °F 85% 29.96 in 10.0 mi NW 15.0 mph - N/A   Clear
1:13 AM 3.2 °F -15.3 °F -0.4 °F 85% 29.97 in 7.0 mi NW 15.0 mph - N/A   Mostly Cloudy
1:33 AM 5.0 °F -14.7 °F 1.4 °F 85% 29.97 in 3.0 mi NW 18.4 mph 27.6 mph N/A   Overcast
1:53 AM 5.0 °F -14.7 °F 1.4 °F 85% 29.96 in 4.0 mi NW 18.4 mph 24.2 mph N/A   Overcast
2:14 AM 5.0 °F -13.0 °F -0.4 °F 78% 29.97 in 5.0 mi NW 15.0 mph 20.7 mph N/A   Haze
2:33 AM 3.2 °F -14.6 °F -0.4 °F 85% 29.97 in 10.0 mi NW 13.8 mph - N/A   Mostly Cloudy
2:53 AM 3.2 °F -16.5 °F -0.4 °F 85% 29.98 in 10.0 mi NW 17.3 mph 20.7 mph N/A   Mostly Cloudy
3:14 AM 3.2 °F -15.9 °F -0.4 °F 85% 29.96 in 10.0 mi WNW 16.1 mph 20.7 mph N/A   Overcast
3:33 AM 3.2 °F -13.9 °F -0.4 °F 85% 29.96 in 10.0 mi WNW 12.7 mph - N/A   Overcast
3:53 AM 5.0 °F -13.0 °F 1.4 °F 85% 29.96 in 10.0 mi WNW 15.0 mph - N/A   Overcast
4:13 AM 5.0 °F -13.0 °F 1.4 °F 85% 29.96 in 10.0 mi WNW 15.0 mph - N/A   Overcast
4:33 AM 5.0 °F -12.3 °F 1.4 °F 85% 29.97 in 5.0 mi WNW 13.8 mph - N/A Snow Light Snow
4:53 AM 6.8 °F -10.7 °F 1.4 °F 79% 29.97 in 5.0 mi WNW 15.0 mph - N/A Snow Light Snow
5:13 AM 6.8 °F -11.3 °F 1.4 °F 79% 29.97 in 3.0 mi WNW 16.1 mph 24.2 mph N/A Snow Light Snow
5:34 AM 5.0 °F -15.7 °F 1.4 °F 85% 29.97 in 2.5 mi NW 20.7 mph 27.6 mph N/A Snow Light Snow
5:53 AM 5.0 °F -14.2 °F 1.4 °F 85% 29.98 in 2.5 mi NW 17.3 mph 25.3 mph N/A Snow Light Snow
6:14 AM 5.0 °F -14.2 °F -0.4 °F 78% 29.99 in 2.5 mi NW 17.3 mph 24.2 mph N/A   Haze
6:33 AM 3.2 °F -15.3 °F -0.4 °F 85% 30.00 in 3.0 mi NW 15.0 mph - N/A   Overcast
6:53 AM 3.2 °F -17.1 °F -0.4 °F 85% 30.01 in 3.0 mi NNW 18.4 mph - N/A   Overcast
7:14 AM 1.4 °F -20.5 °F -4.0 °F 78% 30.02 in 2.0 mi NNW 20.7 mph 28.8 mph N/A Snow Light Snow
7:33 AM 1.4 °F -21.0 °F -4.0 °F 78% 30.04 in 4.0 mi NNW 21.9 mph 28.8 mph N/A   Haze
7:54 AM -0.4 °F -20.5 °F -5.8 °F 78% 30.05 in 4.0 mi NW 16.1 mph - N/A   Haze
8:13 AM -0.4 °F -20.5 °F -7.6 °F 72% 30.05 in 5.0 mi NW 16.1 mph - N/A   Haze
8:33 AM -2.2 °F -23.5 °F -7.6 °F 78% 30.06 in 5.0 mi NW 17.3 mph 23.0 mph N/A   Haze
8:54 AM -2.2 °F -25.7 °F -9.4 °F 71% 30.08 in 1.2 mi NNW 21.9 mph 29.9 mph N/A   Haze
9:13 AM -4.0 °F -29.6 °F -9.4 °F 78% 30.09 in 1.2 mi NW 25.3 mph 34.5 mph N/A   Haze
9:34 AM -4.0 °F -29.6 °F -11.2 °F 71% 30.11 in 1.5 mi NNW 25.3 mph 31.1 mph N/A   Haze
9:53 AM -4.0 °F -29.1 °F -11.2 °F 71% 30.12 in 1.8 mi NNW 24.2 mph 27.6 mph N/A   Haze
10:13 AM -5.8 °F -32.0 °F -11.2 °F 77% 30.13 in 1.2 mi NNW 25.3 mph 31.1 mph N/A   Haze
10:33 AM -4.0 °F -28.1 °F -11.2 °F 71% 30.15 in 1.2 mi NNW 21.9 mph 27.6 mph N/A   Haze
10:53 AM -5.8 °F -29.9 °F -11.2 °F 77% 30.16 in 1.8 mi NNW 20.7 mph 31.1 mph N/A   Haze
11:14 AM -5.8 °F -32.0 °F -11.2 °F 77% 30.17 in 1.8 mi NNW 25.3 mph - N/A   Haze
11:33 AM -5.8 °F -29.4 °F -13.0 °F 71% 30.18 in 3.0 mi NNW 19.6 mph 27.6 mph N/A   Haze
11:53 AM -5.8 °F -30.5 °F -13.0 °F 71% 30.18 in 1.8 mi NW 21.9 mph 32.2 mph N/A   Haze
12:13 PM -5.8 °F -32.4 °F -14.8 °F 65% 30.19 in 1.5 mi NNW 26.5 mph 29.9 mph N/A Snow Light Snow
12:33 PM -5.8 °F -31.0 °F -13.0 °F 71% 30.19 in 1.8 mi NW 23.0 mph 28.8 mph N/A   Haze
12:53 PM -5.8 °F -30.5 °F -13.0 °F 71% 30.19 in 2.0 mi NNW 21.9 mph 31.1 mph N/A   Haze
1:13 PM -5.8 °F -31.5 °F -13.0 °F 71% 30.19 in 1.8 mi NNW 24.2 mph 32.2 mph N/A Snow Light Snow
1:33 PM -5.8 °F -30.5 °F -14.8 °F 65% 30.21 in 2.0 mi NNW 21.9 mph - N/A Snow Light Snow
1:54 PM -5.8 °F -30.5 °F -14.8 °F 65% 30.21 in 1.0 mi NNW 21.9 mph 34.5 mph N/A Snow Heavy Snow
2:13 PM -5.8 °F -31.0 °F -13.0 °F 71% 30.23 in 0.2 mi NW 23.0 mph 29.9 mph N/A Snow Heavy Snow
2:33 PM -5.8 °F -29.9 °F -13.0 °F 71% 30.24 in 0.2 mi NW 20.7 mph 27.6 mph N/A Snow Light Snow
2:53 PM -5.8 °F -30.5 °F -14.8 °F 65% 30.25 in 0.2 mi NW 21.9 mph 27.6 mph N/A Snow Heavy Snow
3:13 PM -7.6 °F -33.4 °F -14.8 °F 71% 30.27 in 1.5 mi NW 23.0 mph 29.9 mph N/A Snow Heavy Snow
3:34 PM -7.6 °F -31.1 °F -14.8 °F 71% 30.28 in 3.0 mi NW 18.4 mph 25.3 mph N/A   Haze
3:53 PM -7.6 °F -32.9 °F -14.8 °F 71% 30.30 in 4.0 mi WNW 21.9 mph 27.6 mph N/A   Haze
4:14 PM -7.6 °F -32.3 °F -14.8 °F 71% 30.30 in 2.0 mi NW 20.7 mph 27.6 mph N/A   Haze
4:33 PM -9.4 °F -34.7 °F -16.6 °F 71% 30.32 in 7.0 mi NW 20.7 mph - N/A   Clear
4:53 PM -9.4 °F -35.8 °F -16.6 °F 71% 30.34 in 5.0 mi NW 23.0 mph 26.5 mph N/A   Haze
5:14 PM -9.4 °F -34.1 °F -16.6 °F 71% 30.35 in 4.0 mi NW 19.6 mph 25.3 mph N/A   Haze
5:33 PM -11.2 °F -34.4 °F -18.4 °F 70% 30.36 in 10.0 mi NW 16.1 mph 23.0 mph N/A   Clear
5:53 PM -11.2 °F -35.8 °F -18.4 °F 70% 30.37 in 10.0 mi NW 18.4 mph 23.0 mph N/A   Clear
6:13 PM -11.2 °F -35.2 °F -18.4 °F 70% 30.38 in 10.0 mi NW 17.3 mph - N/A   Clear
6:33 PM -11.2 °F -37.0 °F -18.4 °F 70% 30.40 in 7.0 mi NW 20.7 mph 26.5 mph N/A   Clear
6:54 PM -13.0 °F -38.2 °F -18.4 °F 77% 30.41 in 7.0 mi NW 18.4 mph 24.2 mph N/A   Clear
7:13 PM -13.0 °F -40.0 °F -18.4 °F 77% 30.42 in 7.0 mi WNW 21.9 mph 27.6 mph N/A   Clear
7:34 PM -14.8 °F -40.5 °F -18.4 °F 84% 30.43 in 10.0 mi NW 18.4 mph - N/A   Clear
7:53 PM -14.8 °F -39.1 °F -20.2 °F 77% 30.43 in 10.0 mi NW 16.1 mph - N/A   Clear
8:13 PM -14.8 °F -38.3 °F -20.2 °F 77% 30.44 in 10.0 mi NW 15.0 mph - N/A   Clear
8:34 PM -14.8 °F -41.2 °F -20.2 °F 77% 30.46 in 10.0 mi NW 19.6 mph - N/A   Clear
8:53 PM -14.8 °F -39.1 °F -20.2 °F 77% 30.47 in 10.0 mi NW 16.1 mph - N/A   Clear
9:14 PM -14.8 °F -37.5 °F -20.2 °F 77% 30.48 in 10.0 mi NW 13.8 mph 19.6 mph N/A   Clear
9:33 PM -14.8 °F -37.5 °F -20.2 °F 77% 30.48 in 10.0 mi NW 13.8 mph - N/A   Clear
9:53 PM -14.8 °F -37.5 °F -20.2 °F 77% 30.48 in 10.0 mi NW 13.8 mph - N/A   Clear
10:14 PM -14.8 °F -36.6 °F -20.2 °F 77% 30.49 in 10.0 mi NW 12.7 mph - N/A   Clear
10:33 PM -16.6 °F -38.9 °F -20.2 °F 84% 30.50 in 10.0 mi NW 12.7 mph 18.4 mph N/A   Clear
10:53 PM -16.6 °F -38.9 °F -22.0 °F 76% 30.51 in 10.0 mi WNW 12.7 mph - N/A   Clear
11:14 PM -16.6 °F -36.8 °F -20.2 °F 84% 30.52 in 10.0 mi NW 10.4 mph - N/A   Clear
11:33 PM -16.6 °F -37.9 °F -22.0 °F 76% 30.52 in 10.0 mi NW 11.5 mph - N/A   Clear
11:54 PM -16.6 °F -37.9 °F -20.2 °F 84% 30.53 in 10.0 mi NW 11.5 mph - N/A   Clear